Regional Weather Roundup
Issued by NWS Midland/Odessa, TX

Skip options and go directly to product.
Home | Oldest Version | Next Version | Current Version | All | Text Only | Save Text | Print | Product List | Glossary On

Skip product version selection by date and time.   
282
ASUS44 KMAF 162101
RWRMAF
MIDLAND AREA WEATHER ROUNDUP
NATIONAL WEATHER SERVICE MIDLAND TX
300 PM CST TUE DEC 16 2014

...IN SOUTHWEST TEXAS AND SOUTHEAST NEW MEXICO...

CITY           SKY/WX    TMP DP  RH WIND       PRES   REMARKS
ALPINE         MOSUNNY   61  38  43 S9        30.20F
ANDREWS        CLOUDY    49  26  40 E13       30.21F
ARTESIA        PTSUNNY   48  27  43 S7G13     30.20F
BIG SPRING     CLOUDY    54  26  33 E10       30.25F
CARLSBAD       MOSUNNY   53  29  39 SE8G17    30.18F
DRYDEN           N/A     62  30  29 E15       30.16F
FORT STOCKTON  MOSUNNY   57  30  35 SE13G26   30.16F
GUAD PASS      NOT AVBL
HOBBS          PTSUNNY   48  27  43 E10       30.21F
MARFA          SUNNY     61  39  44 SE15      30.15F
MIDLAND AIRPK  CLOUDY    54  27  36 E7        30.22F
MIDLAND INTL   CLOUDY    54  27  35 E14       30.20F
ODESSA         CLOUDY    53  25  33 SE14      30.20F
PECOS          MOSUNNY   56  29  35 E12       30.18F
PRESIDIO       FAIR      68  43  40 E7G20     30.06F
SEMINOLE       CLOUDY    50  26  38 SE10      30.23F
SNYDER         SUNNY     51  28  39 E6        30.25F
WINK           MOSUNNY   56  25  30 E14       30.17F
$$
...OTHER STATIONS IN TEXAS...

CITY           SKY/WX    TMP DP  RH WIND       PRES   REMARKS
ABILENE        SUNNY     54  27  35 NE7       30.24F
AMARILLO       SUNNY     51  20  29 S9        30.22F
AUSTIN         PTSUNNY   61  35  37 NE13      30.24F
BROWNSVILLE    CLOUDY    72  64  78 E18G24    30.15S
CORPUS CHRISTI PTSUNNY   65  41  41 NE14      30.22F
DALLAS FTW     PTSUNNY   51  31  46 N9        30.29F
DEL RIO        CLOUDY    58  34  40 S8        30.21F
EL PASO        CLOUDY    60  24  25 E7        30.06F
HOUSTON INT    MOSUNNY   66  37  34 NW8       30.22F
LUBBOCK        PTSUNNY   52  25  35 SE8       30.22F
SAN ANGELO     CLOUDY    55  29  36 E9        30.25S
SAN ANTONIO    MOSUNNY   65  34  31 E10       30.23S
WACO           MOSUNNY   56  32  40 N8        30.28F
WICHITA FALLS  NOT AVBL
$$
...OTHER LOCATIONS IN NEW MEXICO...

CITY           SKY/WX    TMP DP  RH WIND       PRES   REMARKS
ALAMAGORDO     PTSUNNY   55  18  22 CALM      30.10F
ALBUQUERQUE    CLOUDY    42  24  49 NW8       30.14F WCI  37
CANNON AFB     NOT AVBL
CLOVIS         MOSUNNY   52  25  35 S12G18    30.20S
HOLLOMAN AFB   NOT AVBL
ROSWELL        PTSUNNY   49  26  41 S10       30.19F
RUIDOSO        CLOUDY    41  21  45 SE10G17   30.17F WCI  35
SANTA FE       CLOUDY    38  21  50 SE9       30.14F WCI  31
TRUTH OR CONSE PTSUNNY   52  18  26 S3        30.08F
TUCUMCARI      PTSUNNY   49  23  36 S15       30.17F
$$

USA.gov is the U.S. government's official web portal to all federal, state and local government web resources and services.